Dewpoint
51 51 51 51 51 52 50 50 48 48 48 49 49 49 49 49 50 50 50 50 51 51 52 52 53 53 54 54 54 54 54 52 50 47 47 40 47 50 52 55 56 58 58 39 26 20 19 20 19 23 25 20 18 16 15 19 15 16 18 11 13 11 9 13 11 15 11 10 8 10 15 14 16 26 31 34 36 37 37 38 40 41 42 43 43 48 52 54
51 50 52 50 50 50 50 51 51 50 50 50 50 50 50 50 49 50 50 50 51 52 52 52 52 53 53 53 54 55 53 51 49 48 47 46 55 54 55 56 58 57 52 26 19 20 18 17 17 20 23 18 16 11 16 11 16 14 19 14 8 11 12 13 13 11 10 8 9 13 11 13 15 18 19 32 35 37 38 39 40 40 41 41 43 45 48 52
50 50 50 49 49 50 50 51 51 50 50 50 50 50 50 50 49 49 50 51 51 52 52 52 53 53 53 53 54 55 52 49 48 43 37 54 55 56 57 57 58 60 31 21 18 16 16 17 17 15 18 16 11 9 13 9 16 12 14 12 11 16 16 17 10 9 11 10 9 9 11 9 10 17 20 32 36 38 38 39 40 40 40 41 41 42 44 47
50 50 51 52 51 51 50 50 50 50 50 50 50 50 50 50 50 50 50 51 51 52 52 52 53 53 53 54 54 53 51 49 45 45 42 55 57 57 56 58 60 57 34 23 18 17 17 17 19 22 18 13 11 11 9 8 14 13 12 11 10 11 9 10 14 12 11 10 10 9 14 9 15 12 24 31 33 37 38 40 40 39 40 40 40 40 43 45
51 52 51 50 50 50 49 49 50 50 51 51 51 51 50 50 50 50 50 51 52 52 52 52 53 53 54 54 55 52 47 30 30 39 34 58 60 58 58 59 59 48 27 21 19 19 18 18 22 23 18 10 9 8 7 8 11 13 10 10 10 10 9 10 10 11 12 12 10 10 11 10 12 12 24 26 28 33 38 40 40 40 40 39 40 40 43 45
50 50 50 50 51 51 50 50 50 50 51 50 50 50 50 50 50 51 51 51 52 52 52 53 53 53 54 54 53 51 43 19 28 29 60 59 60 59 59 60 59 29 24 21 22 24 22 22 21 21 16 9 7 6 10 8 11 8 8 10 10 10 9 13 13 15 13 10 10 10 11 10 14 14 15 14 20 28 32 40 41 40 40 40 40 43 46 47
51 52 52 51 51 51 50 50 50 50 50 50 50 51 51 51 51 51 51 52 52 52 52 52 53 53 54 54 51 49 42 36 39 40 55 59 59 58 62 63 57 29 27 27 26 24 24 23 23 18 17 10 6 6 7 12 11 8 7 8 9 10 10 12 13 13 10 7 10 13 17 12 18 9 13 20 21 20 29 39 41 40 41 41 41 45 47 48
52 52 51 51 51 51 51 51 51 51 50 50 51 51 51 51 51 51 51 52 52 52 52 53 53 53 54 51 47 43 43 41 42 45 56 59 58 59 56 41 29 26 24 24 24 24 25 24 23 20 14 10 9 11 11 12 11 8 8 8 8 9 9 10 11 9 11 10 13 15 12 14 13 11 14 21 31 34 38 40 40 41 41 42 44 45 49 49
51 51 51 52 52 52 52 51 51 51 52 52 51 52 52 52 52 52 52 52 52 52 52 53 53 54 54 52 44 40 38 42 43 43 56 54 52 53 35 27 30 24 25 24 24 25 25 24 24 22 13 14 13 11 11 10 12 9 8 10 8 13 10 10 13 12 10 12 12 10 19 17 15 14 15 18 34 37 39 40 40 40 40 41 43 47 48 47
51 51 52 52 52 52 52 52 52 52 52 52 52 52 52 52 52 52 52 52 52 53 53 53 53 53 52 49 44 38 39 37 35 46 47 47 50 46 38 31 28 27 24 23 24 23 23 24 22 20 16 12 18 10 12 10 7 9 8 8 7 14 11 12 10 11 11 10 17 15 19 15 13 12 9 24 35 38 38 39 39 39 40 40 42 47 47 45
51 51 52 52 52 52 52 52 53 53 53 53 53 53 52 52 52 52 52 52 52 53 53 53 53 53 49 47 39 35 41 27 31 44 43 41 41 38 30 32 29 27 24 26 23 22 22 23 24 23 19 11 15 12 11 6 9 7 9 7 17 12 14 12 12 10 8 11 11 9 10 11 8 10 12 21 33 36 36 37 37 38 39 39 40 45 47 44
51 51 52 52 52 52 52 52 53 53 53 52 52 52 52 52 53 53 53 53 53 53 53 53 53 52 51 47 41 34 42 28 31 33 38 33 34 33 33 31 30 26 25 24 26 26 24 24 24 20 14 16 13 13 8 11 10 8 10 7 9 11 10 12 10 12 11 11 10 11 9 7 10 7 11 19 31 34 34 35 36 36 37 39 40 46 47 44
51 51 52 52 52 52 52 53 53 53 52 52 52 52 52 52 53 53 53 52 52 52 52 53 53 51 48 37 39 43 41 40 27 29 30 29 27 31 34 34 32 30 28 25 26 24 22 21 19 16 17 16 14 11 12 11 9 10 8 9 9 9 7 9 12 13 8 10 8 7 6 13 10 9 8 14 17 31 31 32 33 35 37 38 42 47 46 45
51 51 52 52 52 52 53 53 52 53 52 52 52 52 53 53 52 52 53 53 53 53 53 53 54 52 46 41 42 44 41 40 34 27 26 28 24 23 24 25 29 31 33 30 28 18 18 18 20 18 18 15 12 14 11 10 10 5 6 8 10 7 10 12 11 10 9 12 8 7 9 9 11 11 11 13 12 21 28 30 31 33 36 37 44 45 43 42
51 52 52 52 52 53 53 53 53 53 53 52 52 53 53 53 52 52 52 53 53 53 54 54 52 47 40 37 38 39 57 46 35 27 24 23 21 19 16 17 17 18 18 18 18 21 19 20 19 16 15 18 15 11 9 8 8 6 6 8 14 7 9 8 16 10 8 10 9 6 16 8 8 10 10 13 11 12 22 27 29 33 35 39 43 43 41 41
52 51 51 52 52 52 52 53 53 53 53 53 53 53 53 53 53 54 53 53 53 53 53 51 51 44 38 29 30 47 35 30 28 28 23 21 18 15 17 15 17 16 17 25 21 20 20 21 17 15 14 15 12 11 11 9 11 14 7 20 16 9 6 4 6 11 10 8 9 5 10 11 10 10 9 21 11 11 12 18 28 32 35 39 43 42 41 40
51 51 51 52 52 52 52 53 53 53 53 53 53 53 53 53 54 54 54 54 53 53 52 44 49 49 33 36 39 34 26 24 27 25 21 20 17 16 17 17 15 15 16 17 24 27 23 22 28 21 23 15 20 19 11 15 12 15 17 12 18 9 11 6 11 10 11 7 5 6 8 16 15 16 16 18 11 10 12 19 28 33 34 38 42 41 40 40
51 51 52 52 52 52 52 52 53 53 53 53 53 52 52 52 53 53 52 53 52 51 50 49 44 39 35 39 31 33 28 26 25 24 23 21 19 17 16 15 16 15 26 18 18 18 21 20 16 18 28 32 21 18 12 12 13 14 25 20 20 18 15 9 7 8 7 6 7 9 8 11 13 18 20 20 18 14 15 19 28 31 33 35 40 41 40 40
51 52 52 52 52 52 52 52 52 53 53 52 52 53 53 53 50 50 46 46 45 40 37 41 37 29 24 28 35 37 27 25 23 23 22 20 19 17 26 29 19 19 22 22 26 18 21 26 30 20 14 22 20 14 15 16 16 21 23 21 23 18 18 15 15 12 6 9 7 9 7 9 14 16 21 20 23 16 19 26 28 31 32 33 38 40 39 40
51 51 52 52 52 52 52 53 53 53 53 51 48 51 51 46 45 46 47 45 40 38 38 39 36 36 32 27 30 33 24 22 18 18 18 19 17 16 15 16 27 22 28 23 27 26 34 17 16 15 20 25 30 30 25 24 28 30 28 22 17 17 16 15 16 24 26 13 12 13 12 11 13 17 22 23 22 21 17 18 27 29 31 31 35 40 39 39
51 52 52 52 52 52 52 53 53 53 53 50 48 48 44 40 32 30 40 42 39 37 35 34 38 33 31 29 26 23 19 20 21 19 17 24 21 13 13 14 20 22 26 31 27 39 29 18 20 23 26 29 34 38 37 35 35 26 27 21 15 17 16 16 22 32 28 17 15 27 17 17 20 28 26 28 23 19 22 20 23 30 30 30 32 38 39 39
51 52 52 52 52 52 52 53 53 53 52 49 48 45 46 43 29 32 35 32 34 39 39 37 37 37 37 35 34 28 23 19 18 17 18 15 15 10 12 12 14 16 25 25 23 22 21 17 23 28 31 36 38 39 37 29 30 31 21 20 18 18 16 20 33 34 30 30 22 26 24 26 28 28 29 25 25 26 25 23 20 29 29 29 29 36 39 38
51 52 52 52 52 52 53 53 52 52 48 47 48 47 46 44 38 41 39 37 33 34 36 37 36 37 38 39 36 29 21 19 16 17 16 14 14 11 13 11 15 23 27 28 21 25 22 21 26 29 38 38 34 37 35 35 32 23 24 20 17 21 18 15 26 34 33 28 22 26 23 28 33 33 30 29 25 27 32 32 32 32 29 28 28 33 37 36
52 52 52 52 52 53 52 53 52 50 48 46 45 40 42 39 39 41 37 32 34 35 34 34 34 35 36 35 26 22 20 21 20 19 20 13 11 13 14 11 13 17 12 21 24 22 19 23 32 34 37 35 31 33 31 28 20 33 27 24 22 22 22 16 21 32 36 33 32 25 25 24 30 22 22 25 29 32 30 28 28 31 34 32 34 34 36 35
52 52 52 52 52 52 53 53 45 45 48 44 40 40 40 40 44 44 41 40 39 37 37 32 35 27 27 30 25 20 21 21 20 18 17 13 14 11 11 15 12 10 10 10 23 22 21 26 35 35 33 33 31 25 30 30 21 27 32 27 26 28 28 30 30 24 23 18 31 26 14 21 28 28 25 24 28 25 28 26 23 22 30 32 31 31 33 37
52 52 52 52 52 52 52 48 48 44 38 33 34 34 41 44 47 47 43 37 33 38 28 29 24 24 26 25 25 22 19 20 20 15 16 14 21 13 21 11 14 15 18 15 15 23 20 30 32 33 31 31 29 27 30 29 23 20 25 35 31 29 30 29 27 23 17 14 23 30 15 16 25 23 23 23 26 24 24 27 23 22 28 30 30 30 32 35
52 52 52 52 52 52 33 36 46 42 31 30 32 38 38 44 50 50 42 30 26 32 30 28 16 22 26 23 24 19 17 20 17 15 16 23 14 26 12 12 12 15 15 28 20 12 27 31 31 34 31 29 26 21 30 31 23 20 30 33 30 28 28 29 28 23 21 29 29 30 21 15 16 19 22 22 23 23 23 23 25 25 26 27 28 28 32 34
52 52 52 52 52 51 44 47 36 31 31 36 39 43 44 47 50 48 37 22 21 32 28 19 21 22 21 27 17 18 18 20 14 13 17 14 12 11 11 10 8 9 19 17 11 21 30 28 29 28 29 22 22 28 31 32 22 22 32 30 25 27 29 30 23 22 23 17 14 21 27 17 18 21 26 24 20 20 20 21 22 24 25 26 26 26 28 32
52 52 52 52 51 52 49 46 41 34 37 39 45 47 48 50 47 38 28 20 29 20 22 21 20 20 15 16 14 15 15 18 15 15 17 13 14 11 13 11 10 13 16 19 12 26 27 31 30 29 25 21 26 27 30 30 22 29 33 30 28 26 32 26 18 14 19 12 11 18 25 15 17 22 21 20 18 19 19 20 21 23 25 24 23 24 26 27
51 52 52 51 49 48 44 48 46 44 44 43 49 51 52 47 38 30 22 16 34 21 19 18 15 15 14 15 14 14 13 16 21 17 15 12 13 9 12 15 9 15 17 24 16 18 21 34 38 26 21 24 27 26 25 27 24 35 28 19 17 22 22 25 21 21 20 7 11 17 26 19 11 16 17 17 19 19 21 23 24 24 24 23 23 22 24 23
51 51 51 51 45 48 47 47 47 47 43 49 52 51 46 42 32 24 18 21 31 23 19 18 14 16 12 12 11 14 12 14 15 15 11 12 14 10 11 9 15 22 22 24 17 17 18 14 25 19 28 22 20 16 22 18 19 22 23 18 18 16 19 19 17 18 6 8 14 17 24 22 10 13 17 23 22 21 20 16 19 24 23 23 24 24 23 24
50 50 50 48 51 48 47 46 46 45 48 53 52 47 40 30 31 22 17 29 22 26 20 19 16 15 13 14 12 13 11 16 13 15 9 8 13 9 9 12 18 6 11 12 5 23 18 12 14 18 29 14 13 12 10 8 21 17 18 16 14 11 13 9 12 5 6 9 14 20 21 16 14 13 15 16 16 17 22 19 21 23 22 23 23 24 23 23
49 50 51 50 51 48 49 47 50 49 50 52 49 44 32 24 17 26 27 23 16 23 15 13 10 9 11 14 11 12 11 11 13 10 12 8 9 13 12 11 17 15 7 22 12 16 13 23 21 14 14 19 12 13 10 6 9 12 10 14 11 5 4 2 9 10 14 16 24 24 24 15 19 19 24 20 21 21 21 21 21 20 22 23 22 22 22 24
49 50 45 50 50 49 50 54 53 52 49 48 44 35 30 24 21 42 26 27 20 11 14 7 6 7 6 7 11 10 8 16 11 14 9 13 9 15 13 9 12 16 18 22 8 16 7 10 16 16 16 20 11 11 11 16 15 9 12 11 14 14 11 3 9 3 8 10 24 28 14 17 12 20 26 25 23 22 20 17 23 26 22 26 23 22 21 25
49 50 48 50 52 52 49 48 49 50 47 42 37 31 24 23 26 22 19 18 15 20 6 8 11 13 7 4 10 10 18 13 15 17 12 12 13 20 19 13 9 11 21 9 21 13 8 13 18 20 15 15 11 8 10 8 9 19 18 11 12 11 20 7 14 14 17 13 13 14 14 20 16 25 26 22 22 22 27 23 25 24 23 27 26 25 25 27
49 48 52 51 55 57 55 52 51 46 41 39 31 27 24 27 23 21 18 21 15 9 7 7 13 7 11 15 19 12 14 15 10 21 20 15 20 16 18 17 13 8 17 13 21 11 11 12 16 14 12 8 12 14 8 7 7 22 11 14 11 18 15 15 18 21 16 18 12 16 17 17 23 13 18 22 22 24 24 26 24 26 26 28 26 25 26 26
49 50 47 54 56 55 52 48 47 47 44 38 30 26 31 33 25 20 26 16 14 12 9 8 16 8 15 12 17 13 12 16 18 12 15 16 19 17 10 16 14 12 11 17 17 19 15 17 26 13 12 13 16 14 14 11 14 15 12 13 19 21 29 17 11 17 10 6 13 15 12 16 12 13 21 18 22 24 24 25 25 28 26 27 28 29 28 27
49 49 50 52 46 41 48 49 47 46 43 36 30 40 37 31 20 20 22 18 17 13 13 13 17 11 12 13 18 11 17 10 15 13 15 19 14 23 12 15 14 16 17 16 15 21 22 11 16 16 15 14 15 12 13 16 14 12 13 28 17 22 16 24 19 4 4 5 5 13 16 14 14 15 18 18 22 23 25 26 26 27 29 29 29 30 30 30
50 46 44 47 42 41 49 50 47 45 40 35 28 29 33 31 19 18 17 21 18 15 14 15 12 16 13 15 16 12 12 12 12 15 9 14 10 28 18 20 16 18 18 18 18 22 28 13 19 23 17 17 17 14 13 19 14 21 15 14 15 17 19 10 15 16 11 5 3 11 11 8 18 16 18 20 23 24 25 26 27 28 30 31 31 30 31 33
47 45 44 46 40 42 48 49 46 43 39 32 32 31 30 20 18 18 15 14 18 17 20 17 11 14 20 16 16 14 15 10 10 13 17 21 10 16 19 20 17 18 20 26 23 28 18 23 13 21 22 16 13 17 15 14 16 17 16 15 17 21 21 13 18 11 10 7 6 6 4 12 18 24 23 22 24 25 26 27 29 28 27 29 30 30 30 31
48 43 43 46 43 42 43 41 36 37 37 38 36 32 21 19 20 16 16 16 18 21 19 17 20 15 19 17 16 16 13 11 10 11 10 11 13 13 24 21 23 18 22 27 29 30 22 21 18 23 17 17 17 19 16 16 15 16 15 17 12 11 9 9 12 21 19 14 8 6 10 16 22 32 26 24 24 26 25 25 27 27 26 25 27 27 29 27
44 37 38 40 41 38 37 28 32 38 34 23 22 22 22 32 14 12 11 15 17 13 18 22 20 21 21 20 17 12 12 11 11 10 11 10 7 15 20 23 23 22 23 24 28 32 27 24 21 17 19 18 17 19 19 19 14 14 14 12 11 19 14 12 7 15 17 18 19 18 11 15 25 27 27 27 28 25 25 23 25 27 27 25 27 26 26 26
36 34 41 42 43 34 30 26 32 29 23 24 23 24 20 18 18 13 12 16 15 17 20 21 21 17 24 13 14 9 10 13 10 9 13 8 10 17 22 21 16 16 23 23 28 28 46 19 19 20 21 20 21 21 20 21 16 16 23 24 19 12 16 13 15 18 14 16 14 14 11 18 26 31 30 28 27 26 27 23 24 25 27 27 26 24 23 22
38 40 40 42 36 34 28 16 20 23 29 29 26 19 22 19 14 13 17 16 17 22 22 22 14 14 15 12 14 10 11 10 15 10 13 13 12 12 18 22 22 18 18 23 22 30 16 24 20 16 13 17 18 18 19 22 21 17 13 18 17 13 20 22 23 23 14 20 17 14 11 14 24 32 27 26 25 24 23 24 25 22 26 25 23 24 24 23
39 40 42 39 35 30 23 25 23 23 25 26 25 21 19 18 17 18 20 16 18 19 22 18 15 18 14 13 14 13 14 10 16 20 18 20 15 17 22 21 21 21 28 33 42 26 18 24 18 12 10 8 6 5 7 12 17 17 19 17 16 8 16 14 10 17 9 19 19 14 13 20 22 23 22 21 20 20 22 22 27 25 25 24 23 23 24 24
34 22 31 29 30 33 30 33 30 26 23 25 22 24 24 20 19 18 18 18 16 19 20 21 19 18 20 18 21 20 15 18 16 20 13 16 22 20 26 23 24 28 42 40 41 32 21 25 23 20 17 16 17 17 23 18 16 12 16 14 15 19 18 16 16 11 12 16 13 18 18 16 16 18 22 19 21 20 20 21 23 24 25 25 24 25 26 27
38 27 25 24 24 29 26 27 27 27 25 28 21 25 23 25 23 20 18 21 19 22 23 21 20 18 21 20 21 21 26 22 24 23 27 28 26 26 26 24 21 40 39 36 35 25 22 16 21 23 21 18 19 18 20 17 15 14 12 14 13 18 20 17 10 13 19 12 12 19 22 17 15 15 19 20 20 23 24 23 23 26 28 29 29 29 33 28
25 27 32 27 24 24 24 24 27 29 27 28 28 29 27 26 27 22 22 20 22 22 23 22 22 16 19 24 23 18 24 26 27 21 30 30 25 25 25 25 21 32 39 25 32 21 20 13 21 21 20 20 19 18 15 12 11 11 11 14 14 17 17 14 13 17 19 11 11 15 17 14 16 18 19 19 21 20 20 23 26 29 30 30 29 29 29 30
35 34 33 35 26 29 28 29 32 30 28 29 29 30 28 28 26 26 23 22 25 23 17 16 22 17 16 20 22 20 25 20 19 28 26 24 25 27 24 26 26 22 21 22 23 26 18 16 21 19 15 15 16 15 16 13 13 13 15 16 18 17 17 18 18 20 18 18 17 17 17 17 20 19 21 24 26 26 28 30 31 31 31 32 30 30 30 32
30 32 32 35 32 31 33 32 31 29 25 32 24 28 25 24 26 19 17 19 17 23 21 24 19 19 18 21 25 24 24 25 23 19 24 22 22 26 22 25 22 22 21 22 20 26 18 19 28 22 16 14 15 15 14 13 15 14 13 16 17 17 18 18 17 17 21 17 19 18 13 14 21 24 25 29 30 31 31 31 31 32 31 32 31 31 33 35
35 37 35 33 30 30 33 31 29 27 25 25 24 28 26 22 22 20 20 19 21 23 26 24 22 23 20 22 25 23 24 24 24 20 23 22 17 26 19 24 19 20 19 23 25 25 23 20 23 18 12 15 16 14 13 15 14 14 15 16 15 15 12 15 10 17 11 11 15 14 12 14 21 28 30 32 32 32 31 31 31 32 32 33 32 34 35 35
36 37 38 33 28 36 28 30 29 28 24 25 30 27 24 21 19 21 21 25 21 22 25 23 27 23 25 23 24 22 24 23 22 20 18 16 17 17 18 18 17 19 22 20 23 21 21 17 16 16 13 11 14 13 12 16 13 13 14 14 16 16 16 18 21 22 20 18 12 12 16 21 24 31 30 31 32 32 33 33 32 32 32 32 34 34 34 35